"2014-08-21 00:01:00",1289329,-4.797086,-2.736146,-29.20357,13.53699,-33.92599,13.68137,0,-0.9975242,-0.111967,7.593458,0,0.004,1104,0,0,0,8.358368,7.322657,7.298874,15.64063,16.62313,16.84367,17.35366,16.23817,14.19382,10.40515,"NAN","NAN",17.02533,-53.77316,-18.49106,-11.61236,-19.46523,0.3823775,37.61348,37.90057,37.91188,39.15066,37.95708,37.98874,38.30747,38.99694,37.45524,0.6870769,0.7004442,0.7009735,0.759995,0.7030887,0.7045719,0.7195867,0.7525538,0.6797593,1.000115,7.333302,13.54765,353.8,349.9,352.1,0.191,7.121
"2014-08-21 00:02:00",1289330,-4.79709,-2.730174,-29.54646,13.53008,-34.54181,13.68794,0,-0.997524,-0.1679503,7.576978,0,0.004,1155,0,0,0,8.387851,7.430646,7.397133,15.63387,16.61328,16.84367,17.35037,16.2312,14.19054,10.40515,"NAN","NAN",17.03584,-53.72321,-18.50814,-11.65002,-19.5002,0.3821453,37.59766,37.92544,37.89379,39.13936,37.97517,37.98647,38.30973,39.08059,37.43942,0.686344,0.7016074,0.7001267,0.7594455,0.7039361,0.7044663,0.7196941,0.7566245,0.679029,1.000153,7.333302,13.55684,353.5,349.3,352,0.627,7.005
"2014-08-21 00:03:00",1289331,-4.745833,-2.718237,-29.4893,13.53336,-34.31785,13.68431,0,-0.9975235,-0.6158179,7.587095,0,0.004,1224,0,0,0,8.381294,7.470184,7.465963,15.63058,16.61962,16.84367,17.35694,16.23817,14.19382,10.40515,"NAN","NAN",17.02883,-53.68103,-18.5278,-11.68606,-19.53351,0.3822235,37.59314,37.9164,37.90284,39.14388,37.97517,37.96839,38.31878,38.96982,37.44846,0.6861348,0.701184,0.7005495,0.7596646,0.7039363,0.7036204,0.7201217,0.751244,0.6794459,1.00014,7.333302,13.4749,353.5,349.5,351.6,0.064,7.046
"2014-08-21 00:04:00",1289332,-4.654677,-2.69434,-29.4893,13.53008,-34.09392,13.66151,0,-1.246904,-0.6158179,7.600105,0,0.004,1442,0,0,0,8.391124,7.483302,7.485733,15.63406,16.61656,16.84017,17.35694,16.23469,14.19382,10.39218,"NAN","NAN",17.02183,-53.62329,-18.54996,-11.72125,-19.56675,0.382146,37.60896,37.92996,37.90057,39.15292,37.96613,37.99778,38.31878,38.99694,37.45298,0.6868677,0.7018188,0.7004437,0.7601026,0.7035122,0.7049958,0.7201217,0.7525525,0.6796544,1.000128,7.333302,13.46386,353.5,349.6,351.7,0.095,7.066
"2014-08-21 00:05:00",1289333,-4.603334,-2.694301,-29.60364,13.51988,-33.42217,13.61573,0,-1.371597,-0.6718025,7.623044,0,0.004,1705,0,0,0,8.423859,7.473465,7.452944,15.63754,16.61328,16.84695,17.35037,16.23817,14.19382,10.3855,"NAN","NAN",17.02533,-53.55752,-18.57264,-11.75786,-19.59793,0.3821443,37.65191,37.90961,37.90509,39.13936,37.95482,38.03621,38.30973,38.97208,37.47107,0.688864,0.7008672,0.7006553,0.7594449,0.7029829,0.7068039,0.7196938,0.751358,0.6804917,1.000115,7.333302,13.62031,353.3,350,351.7,-0.221,7.152
"2014-08-21 00:06:00",1289334,-4.569117,-2.652463,-29.94655,13.4938,-33.42218,13.61245,0,-1.496288,-0.6718027,7.652634,0,0.004,1776,0,0,0,8.397677,7.424284,7.439835,15.63058,16.60672,16.84695,17.35366,16.23817,14.19382,10.37567,"NAN","NAN",17.02883,-53.47614,-18.58791,-11.79055,-19.63025,0.3821435,37.60444,37.95256,37.90057,39.13936,37.95708,38.00003,38.31199,39.02407,37.45072,0.6866589,0.7028806,0.7004437,0.7594448,0.7030887,0.7051026,0.7198007,0.7538653,0.6795501,1.000128,7.333302,13.54299,352.9,350,351.9,-0.063,7.148
"2014-08-21 00:07:00",1289335,-4.574821,-2.634545,-30.34657,13.48707,-33.926,13.61573,0,-1.371596,-0.5038517,7.682116,0,0.004,1769,0,0,0,8.407387,7.391403,7.380933,15.62401,16.61,16.8371,17.35366,16.2312,14.19382,10.37266,"NAN","NAN",17.02883,-53.38686,-18.5982,-11.82414,-19.6627,0.3821441,37.65191,37.90509,37.89605,39.1597,37.96839,37.98874,38.30973,39.08059,37.4236,0.6888608,0.7006554,0.7002324,0.7604318,0.703618,0.7045719,0.719694,0.7566258,0.6782996,1.000153,7.337067,13.55127,352.4,349.5,352.2,0.716,7.051
"2014-08-21 00:08:00",1289336,-4.609038,-2.664435,-30.34651,13.51695,-34.09389,13.61227,0,-0.9975226,0,7.672386,0,0.004,1920,0,0,0,8.374741,7.33905,7.334669,15.61784,16.59994,16.84367,17.35695,16.23469,14.19382,10.36257,"NAN","NAN",17.02533,-53.30275,-18.6145,-11.85694,-19.69265,0.3821472,37.618,37.89831,37.90961,39.11449,37.97517,38.00456,38.30747,39.01277,37.45072,0.6872867,0.7003391,0.7008669,0.758242,0.7039363,0.7053141,0.7195867,0.7533283,0.6795521,1.000128,7.340832,13.51168,352.6,349.3,352.6,1.353,7.014
"2014-08-21 00:09:00",1289337,-4.700193,-2.688331,-29.83217,13.4679,-33.92594,13.61227,0,-0.9975226,0,7.642797,0,0.004,2173,0,0,0,8.37485,7.381569,7.360985,15.61784,16.60344,16.84695,17.35037,16.22771,14.19382,10.36938,"NAN","NAN",17.03234,-53.21354,-18.62899,-11.89377,-19.72333,0.3821472,37.60896,37.92092,37.90284,39.15292,37.95935,38.0136,38.31425,38.96756,37.46655,0.6868675,0.7013955,0.7005498,0.7601028,0.7031946,0.7057388,0.7199081,0.751138,0.6802816,1.000191,7.352127,13.56046,352.8,349.5,352.5,0.969,7.047
"2014-08-21 00:10:00",1289338,-4.77419,-2.724137,-29.83225,13.42781,-33.81407,13.55978,0,-0.9975254,0,7.619865,0,0.004,2277,0,0,0,8.345169,7.348595,7.377665,15.60103,16.60344,16.84695,17.35366,16.23817,14.19382,10.36965,"NAN","NAN",17.01832,-53.1216,-18.64998,-11.92711,-19.75538,0.3821443,37.60218,37.95256,37.90735,39.1484,37.95935,37.98421,38.33234,38.9766,37.4462,0.6865537,0.7028813,0.7007617,0.7598833,0.7031944,0.7043603,0.7207649,0.7515725,0.6793416,1.000153,7.355892,13.24382,352.6,349.3,352.4,0.984,7.013
"2014-08-21 00:11:00",1289339,-4.836826,-2.718145,-29.66082,13.36909,-33.0863,13.52351,0,-0.9975259,0,7.56397,0,0.004,2275,0,0,0,8.312538,7.276464,7.288966,15.59119,16.60322,16.84695,17.35037,16.2312,14.19382,10.34305,"NAN","NAN",17.02533,-53.02449,-18.6627,-11.96144,-19.78515,0.3821429,37.61574,37.91413,37.89605,39.16648,37.95482,37.97743,38.33008,38.99694,37.43942,0.6871819,0.7010801,0.7002325,0.7607614,0.7029828,0.7040427,0.7206578,0.7525535,0.6790287,1.000153,7.355892,13.50614,352.5,349.9,352.1,0.101,7.12
"2014-08-21 00:12:00",1289340,-4.848217,-2.676326,-29.37505,13.30657,-32.58242,13.44768,0,-0.9975252,0,7.531204,0,0.004,1972,0,0,0,8.27653,7.266726,7.249537,15.5715,16.59994,16.84695,17.35366,16.22771,14.19382,10.31342,"NAN","NAN",17.01832,-52.93261,-18.67547,-11.99662,-19.81666,0.3821433,37.62478,37.89379,37.90735,39.1258,37.97743,37.97065,38.33234,38.99242,37.42133,0.6876018,0.7001274,0.7007611,0.7587881,0.7040431,0.7037253,0.7207642,0.7523346,0.6781959,1.000153,7.355892,13.51718,352.4,350,351.9,-0.215,7.14
"2014-08-21 00:13:00",1289341,-4.819718,-2.658397,-29.20355,13.25061,-31.96656,13.37204,0,-0.9975238,0,7.498441,0,0.004,1505,0,0,0,8.247174,7.36836,7.364456,15.55507,16.59316,16.83994,17.35015,16.22771,14.19382,10.29733,"NAN","NAN",17.01832,-52.85643,-18.68395,-12.03096,-19.84475,0.3821455,37.62252,37.91866,37.90284,39.1371,37.96161,38.03168,38.30295,39.04668,37.41455,0.6874962,0.7012897,0.7005495,0.7593351,0.7033007,0.7065923,0.7193732,0.7549598,0.6778831,1.00014,7.355892,13.55859,352.3,350.2,351.8,-0.581,7.183
"2014-08-21 00:14:00",1289342,-4.785536,-2.646449,-29.03211,13.15874,-31.29476,13.29672,0,-0.9975238,0,7.46567,0,0.004,1689,0,0,0,8.191322,7.365079,7.374384,15.55179,16.59316,16.84345,17.35366,16.24146,14.19382,10.28723,"NAN","NAN",17.01855,-52.79084,-18.69588,-12.06615,-19.87543,0.3821455,37.62478,37.91413,37.89379,39.14614,37.96161,37.99778,38.32782,38.97886,37.45524,0.6876027,0.7010782,0.7001267,0.7597736,0.7033004,0.7049958,0.72055,0.7516804,0.67976,1.000153,7.355892,13.57332,352,350.5,351.6,-0.993,7.237
"2014-08-21 00:15:00",1289343,-4.779785,-2.592654,-28.97482,13.06685,-30.56683,13.20467,0,-0.9975193,-0.2239326,7.462395,0,0.004,1994,0,0,0,8.18835,7.309347,7.295504,15.55179,16.59666,16.83666,17.35015,16.23469,14.19382,10.29064,"NAN","NAN",17.01482,-52.72774,-18.71011,-12.1028,-19.90498,0.3821502,37.59088,37.95709,37.89379,39.14614,37.96387,38.03621,38.30747,38.99242,37.43942,0.6860296,0.7030935,0.7001268,0.7597736,0.7034063,0.7068038,0.7195867,0.7523342,0.6790287,1.00014,7.355892,13.49047,351.6,350.7,351.4,-1.519,7.284
"2014-08-21 00:16:00",1289344,-4.717091,-2.526927,-28.91765,12.99138,-30.2309,13.13594,0,-1.039082,-0.6717978,7.462395,0,0.004,2058,0,0,0,8.145679,7.434021,7.41333,15.55527,16.60672,16.84695,17.35366,16.2312,14.19382,10.29077,"NAN","NAN",17.02883,-52.65686,-18.7271,-12.13795,-19.93476,0.3821526,37.61574,37.90735,37.89153,39.14614,37.96839,37.99326,38.31652,38.9766,37.42585,0.6871818,0.7007609,0.7000213,0.7597741,0.7036183,0.7047842,0.7200148,0.7515709,0.6784034,1.000166,7.355892,13.44813,351.2,350.7,350.9,-1.94,7.278
"2014-08-21 00:17:00",1289345,-4.608858,-2.455247,-28.97472,12.9684,-29.95091,13.07687,0,-0.9975159,-0.6717961,7.504896,0,0.004,2065,0,0,0,8.129207,7.558614,7.541463,15.55179,16.59994,16.84695,17.35694,16.23469,14.19382,10.28409,"NAN","NAN",17.01832,-52.56758,-18.74508,-12.17401,-19.96127,0.3821541,37.64739,37.90509,37.89605,39.15519,37.95482,37.98647,38.30521,39.13936,37.43489,0.6886535,0.7006558,0.7002327,0.7602132,0.7029831,0.7044658,0.71948,0.7594662,0.6788204,1.000153,7.355892,13.48863,351,350.6,351.1,-1.656,7.271
"2014-08-21 00:18:00",1289346,-4.466482,-2.425403,-28.63168,12.90936,-29.78282,13.05406,0,-1.080637,-0.6717928,7.524658,0,0.004,1691,0,0,0,8.184865,7.627566,7.623309,15.54871,16.60344,16.84016,17.35037,16.23797,14.19382,10.26116,"NAN","NAN",17.02183,-52.46246,-18.75547,-12.21012,-19.98871,0.382162,37.60444,37.90735,37.90057,39.12806,37.96161,37.99778,38.3233,39.01277,37.43716,0.6866579,0.7007613,0.7004442,0.7588983,0.7033004,0.7049958,0.7203358,0.7533181,0.6789245,1.000166,7.355892,13.44076,351.1,350.7,351.2,-1.491,7.281
"2014-08-21 00:19:00",1289347,-4.381026,-2.377612,-28.97458,12.89311,-29.89478,13.02437,0,-1.371577,-0.7277756,7.554138,0,0.004,1511,0,0,0,8.204518,7.683311,7.66245,15.54851,16.60344,16.84695,17.35037,16.23797,14.19382,10.2512,"NAN","NAN",17.02533,-52.35225,-18.76058,-12.24613,-20.01599,0.382162,37.63609,37.91188,37.89379,39.14614,37.96839,37.99326,38.31652,39.00146,37.42811,0.6881265,0.7009724,0.7001267,0.7597736,0.703618,0.7047839,0.7200148,0.7527709,0.6785076,1.000179,7.359659,13.53833,350.6,350.4,351.3,-1.092,7.227
"2014-08-21 00:20:00",1289348,-4.306953,-2.407475,-29.14598,12.88966,-30.17465,13.03766,0,-1.454701,-0.6717919,7.610034,0,0.004,1478,0,0,0,8.263435,7.657076,7.613083,15.53887,16.59666,16.84695,17.35037,16.24146,14.19382,10.24806,"NAN","NAN",17.02883,-52.27602,-18.77416,-12.28209,-20.0432,0.3821635,37.59539,37.939,37.89831,39.15066,37.96839,37.98648,38.31652,39.00599,37.43264,0.6862394,0.7022431,0.7003386,0.7599933,0.703618,0.7044659,0.7200146,0.7529901,0.678716,1.000179,7.37849,13.47665,350.4,350.2,351.7,-0.442,7.185
"2014-08-21 00:21:00",1289349,-4.295553,-2.437341,-29.60317,12.94232,-30.90241,13.05061,0,-1.496264,-0.783757,7.672188,0,0.004,1475,0,0,0,8.269981,7.614451,7.583875,15.51898,16.59688,16.84367,17.35366,16.23469,14.19382,10.23811,"NAN","NAN",17.01482,-52.24712,-18.78096,-12.31727,-20.06705,0.3820093,37.61574,37.92092,37.89153,39.14162,37.96613,37.98421,38.32782,38.98112,37.45524,0.6871817,0.7013955,0.700021,0.759555,0.7035125,0.7043603,0.7205505,0.7517889,0.6797592,1.000217,7.37849,13.50426,350.3,349.5,351.9,0.458,7.053
"2014-08-21 00:22:00",1289350,-4.363914,-2.515,-30.23176,13.00139,-32.30193,13.09311,0,-1.496261,-0.6717906,7.72452,0,0.004,1602,0,0,0,8.289517,7.601334,7.544047,15.52574,16.5936,16.84345,17.35694,16.23817,14.19382,10.21192,"NAN","NAN",17.02533,-52.22082,-18.79458,-12.35326,-20.096,0.3820103,37.61348,37.92996,37.89605,39.14162,37.95708,37.99326,38.31425,39.00373,37.44168,0.6870771,0.7018209,0.700233,0.7595544,0.7030887,0.7047839,0.7199077,0.7528802,0.679133,1.000153,7.37849,13.39105,350,348.4,352.2,2.016,6.817
"2014-08-21 00:23:00",1289351,-4.437961,-2.580704,-30.00307,13.05373,-32.97362,13.1489,0,-1.24688,-0.5598238,7.737528,0,0.004,1683,0,0,0,8.322253,7.637403,7.586668,15.51242,16.60344,16.84695,17.35037,16.2312,14.19382,10.21546,"NAN","NAN",17.02533,-52.20233,-18.80817,-12.3876,-20.12152,0.3817054,37.60896,37.90735,37.89153,39.16875,37.96161,38.03847,38.30973,38.99016,37.42133,0.6868674,0.7007608,0.7000213,0.7608721,0.7033004,0.7069101,0.7196938,0.7522252,0.6781952,1.000179,7.381879,13.38369,350.5,348,352.4,2.56,6.742
"2014-08-21 00:24:00",1289352,-4.506325,-2.640443,-30.40311,13.12938,-33.6454,13.21468,0,-1.205318,-0.3918766,7.763941,0,0.004,1557,0,0,0,8.325745,7.68987,7.619349,15.51262,16.59032,16.84345,17.35366,16.23469,14.19382,10.21533,"NAN","NAN",17.02533,-52.12099,-18.81925,-12.42197,-20.14624,0.3817054,37.63609,37.91188,37.89379,39.15066,37.96387,37.99099,38.31425,39.0512,37.43264,0.6881281,0.7009726,0.7001267,0.759993,0.7034065,0.7046778,0.7199077,0.7551807,0.678716,1.00023,7.395434,13.37356,350.5,347.7,352.7,3.173,6.677
"2014-08-21 00:25:00",1289353,-4.568981,-2.676279,-30.28882,13.17842,-33.86934,13.28688,0,-1.246881,-0.5038415,7.760564,0,0.004,1450,0,0,0,8.345497,7.778387,7.718081,15.50585,16.58354,16.84695,17.35037,16.24475,14.19382,10.22214,"NAN","NAN",17.01832,-52.00542,-18.83965,-12.45466,-20.17005,0.3817053,37.64965,37.9164,37.89831,39.1371,37.95256,38.03168,38.31425,39.00373,37.44846,0.6887556,0.701184,0.7003381,0.7593351,0.702877,0.7065894,0.7199078,0.7528806,0.6794474,1.000217,7.398823,13.5604,350.8,347.8,352.6,2.857,6.71
"2014-08-21 00:26:00",1289354,-4.591763,-2.694198,-30.28882,13.20811,-33.81336,13.29016,0,-1.454694,-0.3918767,7.773875,0,0.004,1413,0,0,0,8.345169,7.834135,7.774109,15.496,16.58704,16.84016,17.35037,16.24126,14.19382,10.20537,"NAN","NAN",17.02533,-51.87682,-18.85924,-12.48739,-20.1956,0.3817052,37.618,37.91413,37.90284,39.16423,37.94578,38.03395,38.3233,38.99694,37.43038,0.6872864,0.7010781,0.7005495,0.7606516,0.7025596,0.7066997,0.7203366,0.7525527,0.6786118,1.000217,7.398823,13.45179,351,347.9,352.8,2.957,6.725
"2014-08-21 00:27:00",1289355,-4.603155,-2.70017,-30.57456,13.20467,-33.92532,13.30345,0,-1.496256,-0.447859,7.773684,0,0.004,1475,0,0,0,8.345169,7.873489,7.829432,15.47959,16.5901,16.84695,17.35366,16.23817,14.19382,10.19227,"NAN","NAN",17.02183,-51.75346,-18.88308,-12.51929,-20.21945,0.3817053,37.60444,37.94804,37.88249,39.15066,37.95708,37.99778,38.30747,39.03537,37.42585,0.6866578,0.702667,0.6995986,0.759993,0.7030886,0.7049958,0.7195868,0.7544132,0.6784036,1.000179,7.398823,13.44719,350.7,347.9,352.7,2.936,6.716
"2014-08-21 00:28:00",1289356,-4.620232,-2.700162,-31.14603,13.22764,-34.20522,13.35252,0,-1.496256,-0.5598236,7.783607,0,0.004,1547,0,0,0,8.348554,7.86365,7.829643,15.47302,16.57718,16.84345,17.35037,16.23817,14.19382,10.18572,"NAN","NAN",17.01832,-51.6353,-18.90264,-12.5479,-20.24497,0.3817058,37.62478,37.91188,37.89153,39.15744,37.95708,37.98421,38.33008,38.97886,37.43716,0.6876011,0.7009728,0.700021,0.7603225,0.7030887,0.7043607,0.7206576,0.7516806,0.6789246,1.000179,7.398823,13.50241,350.2,347.9,352.6,2.875,6.713
"2014-08-21 00:29:00",1289357,-4.66011,-2.730031,-31.43178,13.29033,-34.76504,13.36892,0,-1.496256,-0.5598236,7.786781,0,0.004,1458,0,0,0,8.348554,7.807806,7.780566,15.47302,16.57718,16.84345,17.35037,16.23448,14.19382,10.16948,"NAN","NAN",17.02533,-51.53822,-18.91799,-12.5749,-20.26798,0.3817058,37.62931,37.90509,37.89153,39.19587,37.95935,37.99778,38.30973,38.9766,37.43942,0.687812,0.7006565,0.7000213,0.7621943,0.7031947,0.7049959,0.7196937,0.751571,0.6790287,1.000204,7.398823,13.54843,350.3,347.4,352.7,3.353,6.618
"2014-08-21 00:30:00",1289358,-4.717071,-2.771842,-32.40346,13.30312,-35.94085,13.40847,0,-1.205323,-0.111965,7.776756,0,0.004,1374,0,0,0,8.309377,7.660355,7.701792,15.46974,16.57368,16.83994,17.35694,16.22422,14.19382,10.16633,"NAN","NAN",17.01482,-51.46209,-18.93158,-12.60269,-20.29009,0.381701,37.61122,37.94578,37.89153,39.11901,37.94804,38.00908,38.30521,39.04894,37.42585,0.6869728,0.7025654,0.700021,0.7584622,0.7026652,0.7055271,0.71948,0.7550706,0.6784043,1.000217,7.398823,13.54199,349.4,346.4,353.1,4.701,6.423
"2014-08-21 00:31:00",1289359,-4.808217,-2.879368,-33.14642,13.41796,-36.78062,13.50001,0,-0.9975097,-0.167948,7.754018,0,0.004,1325,0,0,0,8.253616,7.722661,7.731392,15.47302,16.57697,16.83994,17.35037,16.23448,14.19382,10.13671,"NAN","NAN",17.02183,-51.41224,-18.94605,-12.62969,-20.3131,0.3816986,37.61122,37.94578,37.88927,39.11676,37.95031,38.03395,38.30295,39.00599,37.43942,0.686973,0.7025635,0.6999164,0.7583496,0.7027712,0.7066994,0.719373,0.7529893,0.6790289,1.000179,7.406353,13.48768,349.3,346.1,352.9,4.898,6.352
"2014-08-21 00:32:00",1289360,-4.876556,-2.939091,-33.54647,13.50675,-37.56437,13.57237,0,-0.9975097,0,7.74408,0,0.004,1209,0,0,0,8.204518,7.712725,7.721563,15.46318,16.57676,16.84695,17.36023,16.2312,14.19382,10.13671,"NAN","NAN",17.01832,-51.38336,-18.96206,-12.65575,-20.33591,0.3816986,37.60444,37.92996,37.88475,39.1484,37.95708,37.99326,38.31652,39.00373,37.42585,0.6866605,0.701825,0.6997041,0.7598833,0.7030886,0.7047837,0.7200146,0.7528799,0.6784034,1.000204,7.421413,13.50057,349.3,345.7,353,5.404,6.272
"2014-08-21 00:33:00",1289361,-4.950493,-2.986807,-33.83221,13.59862,-38.40411,13.6774,0,-1.039073,0,7.701482,0,0.004,1264,0,0,0,8.191426,7.680033,7.675364,15.45334,16.58376,16.84695,17.35366,16.23448,14.19382,10.13343,"NAN","NAN",17.01482,-51.37022,-18.97703,-12.68005,-20.35596,0.3816986,37.63609,37.90057,37.88927,39.14162,37.95482,37.99552,38.3233,39.01955,37.42585,0.6881256,0.700444,0.6999155,0.7595543,0.7029827,0.7048898,0.7203358,0.7536454,0.6784036,1.000153,7.421413,13.39196,349.5,345.4,352.8,5.442,6.216
"2014-08-21 00:34:00",1289362,-5.041642,-3.076411,-33.26072,13.68431,-38.18018,13.75962,0,-1.413139,-0.5598267,7.694929,0,0.004,1330,0,0,0,8.191426,7.627367,7.672089,15.45334,16.58047,16.84367,17.35694,16.2312,14.19382,10.13042,"NAN","NAN",17.02183,-51.39122,-18.98811,-12.70541,-20.37983,0.3816986,37.62026,37.95709,37.89153,39.16648,37.95708,37.99326,38.31652,38.98112,37.40099,0.6873937,0.7030995,0.700021,0.760761,0.7030887,0.7047837,0.7200148,0.7517888,0.6772582,1.000191,7.421413,13.53094,350.6,346.1,352.2,4.183,6.35
"2014-08-21 00:35:00",1289363,-5.064487,-3.046578,-32.86076,13.68068,-37.95635,13.76636,0,-1.496268,-0.5038452,7.72114,0,0.004,1276,0,0,0,8.191426,7.686587,7.724548,15.44678,16.56055,16.84695,17.35037,16.23817,14.19382,10.1041,"NAN","NAN",17.02183,-51.4227,-19.00031,-12.73342,-20.40057,0.3816961,37.62252,37.9164,37.89153,39.1484,37.95708,38.00004,38.31652,39.01051,37.44394,0.6874962,0.7011839,0.700021,0.7598835,0.7030886,0.7051018,0.7200146,0.7532086,0.6792375,1.000166,7.421413,13.47479,350.9,346.3,352.4,4.058,6.403
"2014-08-21 00:36:00",1289364,-5.030334,-3.022701,-32.74648,13.67101,-38.01235,13.77326,0,-1.496269,-0.3358971,7.72452,0,0.004,1104,0,0,0,8.184967,7.840597,7.833018,15.43037,16.56384,16.84345,17.35037,16.23469,14.19382,10.09414,"NAN","NAN",17.02183,-51.46207,-19.01741,-12.75964,-20.42364,0.3816948,37.57279,37.97743,37.90509,39.14388,37.94804,37.99326,38.31199,39.00825,37.43716,0.6851921,0.7040532,0.7006572,0.7596643,0.7026653,0.7047837,0.7198007,0.7530983,0.6789245,1.000204,7.417648,13.50977,351,346.3,352.6,4.273,6.399
"2014-08-21 00:37:00",1289365,-4.916408,-2.951022,-32.17497,13.59241,-36.27686,13.71402,0,-1.496268,-0.6158109,7.737521,0,0.004,1146,0,0,0,8.122767,7.955457,7.931249,15.42708,16.55747,16.84695,17.35037,16.23469,14.19382,10.08418,"NAN","NAN",17.02183,-51.50404,-19.03114,-12.7867,-20.44419,0.3816952,37.60896,37.91866,37.89831,39.14614,37.95482,37.98421,38.30069,39.11449,37.41229,0.6868672,0.7012897,0.7003381,0.7597737,0.7029827,0.7043598,0.7192662,0.7582569,0.6777782,1.000153,7.417648,13.59168,351.2,347.7,352.4,2.682,6.685
"2014-08-21 00:38:00",1289366,-4.796829,-2.855475,-32.28923,13.50329,-34.87725,13.62851,0,-1.620955,-0.7277758,7.750631,0,0.004,1168,0,0,0,8.073558,8.01121,8.003799,15.41066,16.54761,16.84695,17.35037,16.23469,14.19382,10.0779,"NAN","NAN",17.01832,-51.54077,-19.04069,-12.81546,-20.46484,0.3816969,37.61122,37.89605,37.90735,39.15744,37.95708,38.02038,38.30521,38.9766,37.42585,0.6869721,0.7002327,0.7007611,0.7603222,0.7030887,0.7060571,0.7194799,0.7515708,0.6784034,1.000166,7.413883,13.37907,350.6,348.7,352.3,1.718,6.874
"2014-08-21 00:39:00",1289367,-4.682889,-2.78379,-32.40353,13.44785,-34.09349,13.56634,0,-1.745644,-0.895724,7.813197,0,0.004,2657,0,0,0,8.030899,8.034164,8.016815,15.4008,16.54761,16.84345,17.35037,16.23797,14.19382,10.06165,"NAN","NAN",17.01832,-51.57488,-19.05433,-12.84574,-20.48359,0.3816195,37.62026,37.90509,37.90509,39.13936,37.95708,38.02038,38.32782,38.98564,37.42585,0.6873915,0.7006555,0.7006562,0.7594451,0.7030892,0.7060688,0.7205508,0.7520078,0.6784033,1.000166,7.402588,13.54198,350.2,349.1,352.5,1.456,6.964
"2014-08-21 00:40:00",1289368,-4.608857,-2.724068,-32.51795,13.37532,-33.47781,13.52662,0,-1.620962,-0.7277783,7.855703,0,0.004,3515,0,0,0,8.041031,8.030884,8.016919,15.39423,16.54084,16.84695,17.35037,16.23817,14.1971,10.05825,"NAN","NAN",17.01482,-51.60902,-19.08345,-12.87611,-20.50675,0.3815381,37.61348,37.90735,37.88249,39.13032,37.98195,38.00682,38.32103,38.97434,37.44394,0.6870769,0.7007608,0.6995985,0.7590069,0.7042549,0.70542,0.7202287,0.7514619,0.6792386,1.000166,7.406353,13.403,349.7,349.5,352.8,1.449,7.045
"2014-08-21 00:41:00",1289369,-4.568992,-2.658364,-32.46083,13.36565,-33.19792,13.47393,0,-1.620963,-0.7277791,7.904859,0,0.004,5235,0,0,0,8.034276,8.139104,8.108724,15.39423,16.54761,16.85024,17.35037,16.24146,14.19382,10.06179,"NAN","NAN",17.01832,-51.62477,-19.17383,-12.90477,-20.52468,0.3813812,37.61574,37.90735,37.88701,39.1484,37.94352,38.08368,38.29843,39.02181,37.43489,0.6871819,0.7007611,0.6998097,0.7598836,0.7024539,0.7090385,0.7191589,0.7537549,0.6788206,1.000204,7.421413,13.44534,349.7,349.5,353.1,1.672,7.045
"2014-08-21 00:42:00",1289370,-4.494928,-2.598624,-32.23225,13.3425,-32.63811,13.44439,0,-1.70409,-0.8397457,7.963953,0,0.004,7489,0,0,0,8.030899,8.178345,8.154297,15.39423,16.54084,16.84345,17.35366,16.23469,14.19382,10.03205,"NAN","NAN",17.02183,-51.62216,-19.21557,-12.93012,-20.54597,0.3813809,37.62252,37.89605,37.89379,39.18909,37.94578,37.99099,38.31199,39.01955,37.43038,0.6874964,0.7002327,0.7001283,0.761868,0.7025606,0.7046778,0.7198007,0.7536447,0.6786118,1.00023,7.421413,13.52449,349.8,349.9,353.3,1.469,7.126
"2014-08-21 00:43:00",1289371,-4.426549,-2.538877,-32.00369,13.3,-32.02234,13.43783,0,-1.787219,-0.8397465,8.01638,0,0.004,7999,0,0,0,8.047264,8.175171,8.161061,15.39095,16.54433,16.84695,17.35037,16.24146,14.19382,10.01228,"NAN","NAN",17.02183,-51.62219,-19.22233,-12.95627,-20.56466,0.3812242,37.61348,37.92318,37.88475,39.13258,37.95935,37.98647,38.33008,38.99694,37.42133,0.6870772,0.7015019,0.6997041,0.7591162,0.7031944,0.7044659,0.7206572,0.7525524,0.6781949,1.000179,7.421413,13.52909,349.8,350.5,353.5,1.162,7.242
"2014-08-21 00:44:00",1289372,-4.375276,-2.520955,-31.83224,13.28343,-31.63046,13.37877,0,-1.787219,-0.7277803,8.052124,0,0.004,7999,0,0,0,8.076729,8.171893,8.154292,15.38766,16.54063,16.84345,17.35366,16.23797,14.19382,9.992503,"NAN","NAN",17.02533,-51.6353,-19.20273,-12.98164,-20.58597,0.3814565,37.5841,37.99326,37.88023,39.15744,37.95708,37.99326,38.31425,39.00147,37.42585,0.6857159,0.7047862,0.6994929,0.7603225,0.7030886,0.7047842,0.7199078,0.7527709,0.6784034,1.00023,7.425179,13.4932,349.9,350.6,353.8,1.411,7.257
"2014-08-21 00:45:00",1289373,-4.375267,-2.514976,-31.6609,13.25751,-31.18269,13.3622,0,-1.662534,-0.6717994,8.078443,0,0.004,7999,0,0,0,8.089932,8.076805,8.092015,15.38438,16.53037,16.84345,17.35366,16.23427,14.19382,9.97966,"NAN","NAN",17.01832,-51.65112,-19.20524,-13.00615,-20.60467,0.3812983,37.62704,37.9164,37.89379,39.13936,37.95482,38.00456,38.30295,39.13032,37.41681,0.6877069,0.701184,0.7001266,0.7594449,0.7029827,0.7053141,0.7193727,0.759033,0.6779869,1.000217,7.444004,13.48951,349.9,350.9,354,1.234,7.329